Location: Dalton
(34.7700°N, 84.9700°W)
Time: 18:58:35
(UTC-04:00)

N. Korean satellite - Pass Details

Date: 07 October 2017
Orbit: 459 x 517 km, 97.2° (Epoch: 21 October)

Event Time Altitude Azimuth Distance (km) Brightness Sun altitude
Rises 20:31:17 0° 197° (SSW) 2,586 10.4 -16.4°
Reaches altitude 10° 20:33:45 10° 213° (SSW) 1,697 9.7 -16.9°
Maximum altitude 20:36:34 21° 264° (W) 1,156 9.4 -17.5°
Drops below altitude 10° 20:39:22 10° 315° (NW) 1,682 10.0 -18.1°
Sets 20:41:48 0° 332° (NNW) 2,555 10.7 -18.6°
